Location: Apeadero de Los Molinos-Guadarrama
(40.7091°N, 4.0689°W)
Time: 00:14:08
(UTC+00:00)

ISS - Pass Details

Date: 28 September 2021
Orbit: 417 x 423 km, 51.6° (Epoch: 18 October)

Event Time Altitude Azimuth Distance (km) Brightness Sun altitude
Rises 18:58:40 0° 307° (NW) 2,364 1.2 -11.3°
Reaches altitude 10° 19:01:35 10° 335° (NNW) 1,501 -0.5 -11.9°
Maximum altitude 19:03:24 14° 8° (N) 1,293 -1.3 -12.2°
Drops below altitude 10° 19:05:14 10° 40° (NE) 1,501 -1.3 -12.6°
Enters shadow 19:05:28 - 44° (NE) 1,556 -1.2 -12.6°
